Regional Weather Roundup
Issued by NWS

Home | Current Version | Previous Version | Graphics & Text | Print | Product List | Glossary On
Versions: 1 2 3 4 5 6 7 8 9 10 11 12 13 14 15 16 17 18 19 20 21 22 23 24 25 26 27 28 29 30 31 32 33 34 35 36 37 38 39 40 41 42 43 44 45 46 47 48 49 50
000
ASUS43 KMPX 190110
RWRMN
WEATHER ROUNDUP FOR MINNESOTA
NATIONAL WEATHER SERVICE TWIN CITIES/CHANHASSEN MN
800 PM CDT SAT APR 18 2015


NOTE: "FAIR" INDICATES FEW OR NO CLOUDS BELOW 12,000 FEET WITH NO
SIGNIFICANT WEATHER AND/OR OBSTRUCTIONS TO VISIBILITY. N/A MEANS
CURRENT SKY AND/OR WEATHER CONDITIONS ARE NOT AVAILABLE.

MNZ060>063-068>070-190200-
   Twin Cities Metro

CITY           SKY/WX    TMP DP  RH WIND       PRES   REMARKS
TWIN CITIES    CLOUDY    68  35  29 E14       29.90S
ST PAUL        CLOUDY    67  35  30 E15       29.91S
CRYSTAL        CLOUDY    67  35  30 E14       29.90R
BLAINE         CLOUDY    66  36  32 E12G17    29.91S
LAKEVILLE      CLOUDY    66  39  37 SE8       29.91R
EDEN PRAIRIE   CLOUDY    67  37  33 E8        29.88S
SOUTH ST PAUL  CLOUDY    68  33  27 E12G21    29.90S
LAKE ELMO      MOCLDY    64  37  36 E12G17    29.93S
$$
MNZ001>005-007-008-013>017-022>024-027-028-190200-
   Northwest Minnesota

CITY           SKY/WX    TMP DP  RH WIND       PRES   REMARKS
BEMIDJI        CLOUDY    58  31  36 E9        29.94S
HALLOCK        MOCLDY    61  19  20 SE5       29.88F
ROSEAU         CLOUDY    61  27  27 SE6       29.92F
WARROAD        CLOUDY    48  34  57 SE6       29.94F
THIEF RVR FALL CLOUDY    63  30  29 E9        29.91F
CROOKSTON      CLOUDY    66  30  26 CALM      29.89F
FOSSTON        CLOUDY    63  27  25 E6        29.91F
DETROIT LAKES  CLOUDY    64  30  27 SE9       29.91F
MOORHEAD       CLOUDY    66  28  24 E7        29.87F
PARK RAPIDS    CLOUDY    63  30  28 E8        29.92F
MAHNOMEN       FAIR      64  30  28 SE6       29.89F
$$
MNZ006-009>011-018-025>026-190200-
   North Central Minnesota

CITY           SKY/WX    TMP DP  RH WIND       PRES   REMARKS
BAUDETTE       CLOUDY    57  23  26 SE6       29.95F
FLAG ISLAND    MOCLDY    54  21  28 E10       29.93F
INTL FALLS     MOCLDY    55  15  20 SE12      29.99F
WASKISH        CLOUDY    57  27  30 E6        29.95F
BIG FORK       MOCLDY    55  25  30 SE7       29.99F
LONGVILLE      MOCLDY    57  32  38 E3        29.96F
GRAND RAPIDS   MOCLDY    54  28  37 E12       30.00F
ORR            PTCLDY    54  10  17 CALM      29.99F
COOK           PTCLDY    54  25  32 SE7       30.03F
WALKER         FAIR      56  38  50 E5        29.95S
$$
MNZ012-019>021-037-190200-
   Northeast Minnesota

CITY           SKY/WX    TMP DP  RH WIND       PRES   REMARKS
DULUTH         PTCLDY    42  27  55 E18G28    30.05F
ELY            CLEAR     46  19  34 SE13      30.06F
HIBBING        MOCLDY    48  27  44 SE10      30.03S
EVELETH        PTCLDY    46  27  46 E10G21    30.05F
DULUTH HARBOR  PTCLDY    37  34  87 NE21      30.08F
TWO HARBORS    PTCLDY    45  30  57 NE14G20   30.06F
SILVER BAY     CLEAR     43  25  49 NE13G18   30.08F
GRAND MARAIS     N/A     42  27  55 NE8       30.13F
G MARAIS ARPRT PTCLDY    41  12  30 NE10G17   30.12F
$$
MNZ029>031-032-039>041-046>048-054>057-064-190200-
   West Central Minnesota

CITY           SKY/WX    TMP DP  RH WIND       PRES   REMARKS
FERGUS FALLS   CLOUDY    66  25  20 SE12      29.87F
WHEATON        CLOUDY    64  32  29 E15       29.86F
MORRIS         LGT RAIN  64  37  36 SE20G26   29.87R
ALEXANDRIA     CLOUDY    64  29  26 E14       29.90F
ELBOW LAKE     MOCLDY    65  31  27 SE10      29.87S
WADENA         CLOUDY    63  34  34 E9        29.91F
GLENWOOD       CLOUDY    63  30  29 E9        29.90S
APPLETON       LGT RAIN  61  52  72 SE9       29.87R
BENSON         LGT RAIN  59  43  55 SE7       29.89R
ORTONVILLE     LGT RAIN  61  52  72 SE8       29.86R
MADISON        RAIN      59  55  88 SE7       29.87S
WILLMAR        LGT RAIN  64  37  36 E8        29.89F
$$
MNZ033>034-036-042>043-049>051-058-059-190200-
   Central Minnesota

CITY           SKY/WX    TMP DP  RH WIND       PRES   REMARKS
ST CLOUD       CLOUDY    65  33  30 E6        29.91S
SAUK CENTRE    CLOUDY    63  33  32 E9        29.90F
PAYNESVILLE    DRIZZLE   61  37  40 NE12G17   29.91R
AITKIN         CLOUDY    52  34  50 E10       29.97F
PINE RIVER     CLOUDY    57  37  47 E10       29.98F
BRAINERD       CLOUDY    57  34  41 E7        29.95F
STAPLES        CLOUDY    61  30  31 E8        29.92F
LONG PRAIRIE   MOCLDY    61  32  33 E8        29.91F
LITTLE FALLS   CLOUDY    63  32  31 CALM      29.91F
LITCHFIELD     CLOUDY    64  36  34 E9        29.89F
BUFFALO        CLOUDY    65  33  29 E10       29.90F
MAPLE LAKE     LGT RAIN  64  40  42 E12       29.91S
$$
MNZ037-044-045-052-053-190200-
   East Central Minnesota

CITY           SKY/WX    TMP DP  RH WIND       PRES   REMARKS
PRINCETON      CLOUDY    66  34  30 E8        29.92F
MORA           CLOUDY    52  34  50 NE7       29.98S
CAMBRIDGE      CLOUDY    66  45  45 E8        29.91F
RUSH CITY      CLOUDY    64  33  31 E6        29.95S
MOOSE LAKE     CLOUDY    41  32  70 NE10G16   30.01S
HINCKLEY       FAIR      50  36  57 NE12G18   29.98F
CLOQUET        MOCLDY    43  28  56 E10G17    30.04F
MCGREGOR       CLOUDY    45  32  61 E15G21    30.01F
$$
MNZ071>073-080-081-089-090-097-098-190200-
   Southwest Minnesota

CITY           SKY/WX    TMP DP  RH WIND       PRES   REMARKS
MONTEVIDEO     LGT RAIN  57  55  94 SW3       29.88F
GRANITE FALLS  LGT RAIN  57  55  94 SE5       29.88F
CANBY          HVY RAIN  58  55  92 S3        29.87S
MARSHALL       CLOUDY    55  50  82 E17       29.85F
REDWOOD FALLS  LGT RAIN  58  56  93 CALM      29.86F
OLIVIA         LGT RAIN  54  50  87 SW6       29.87F
PIPESTONE      RAIN      55  54  94 SE7       29.82F
WINDOM         CLOUDY    55  55 100 E8        29.85F
WORTHINGTON    CLOUDY    55  52  88 E6        29.83F
JACKSON        CLOUDY    55  54  94 E12       29.84F
TRACY          DRIZZLE   57  56  96 E8        29.85F
SLAYTON        DRIZZLE   55  55 100 E8        29.85F
$$
MNZ065>067-074>077-082>085-091>093-190200-
   South Central Minnesota

CITY           SKY/WX    TMP DP  RH WIND       PRES   REMARKS
MANKATO        CLOUDY    57  52  82 SE13      29.91F
NEW ULM        RAIN      55  54  94 E3        29.88F
ST JAMES       LGT RAIN  59  55  88 E10       29.87F
FAIRMONT       CLOUDY    57  52  82 E8        29.85F
GLENCOE        LGT RAIN  64  56  73 S6        29.90R
FARIBAULT      LGT RAIN  63  54  72 S6        29.93R
OWATONNA       RAIN      61  55  82 S7        29.93S
ALBERT LEA     HVY RAIN  57  57 100 SE8       29.92S
$$
MNZ078>079-086>088-094>096-190200-
   Southeast Minnesota

CITY           SKY/WX    TMP DP  RH WIND       PRES   REMARKS
ROCHESTER      CLOUDY    65  42  43 S10       29.94R
RED WING       CLOUDY    68  30  24 E14G21    29.90S
STANTON        CLOUDY    69  36  30 SE9G20    29.91R
DODGE CENTER   RAIN      61  54  77 S10       29.94R
WINONA         CLOUDY    63  37  39 SE10      29.94S
AUSTIN         RAIN      59  55  88 S5        29.94R
PRESTON        CLOUDY    65  39  39 E10       29.93R
$$
ABBREVIATIONS USED IN REMARKS
   TC - TEMPERATURES IN CELSIUS
  WCI - WIND CHILL INDEX
   HX - HEAT INDEX
  VSB - VISIBILITY
$$


USA.gov is the U.S. government's official web portal to all federal, state and local government web resources and services.